User: anonymous   Login
Location: NJAA Observatory
(40.6819°N, 74.8979°W)
Time: 05:56:27
(UTC-05:00)
Language:

Cosmos 1328 Rocket - Orbit

View from above orbital plane
View from above orbital plane
View from above satellite
View from above satellite

Ground track
Ground track

The orbit data is extracted from the following two-line orbital elements,

1 12988U 81117B   15029.53369804  .00000635  00000-0  72695-4 0  2722
2 12988 082.5266 168.9022 0018268 195.8323 210.9412 14.84289522790799
Epoch (UTC): 29 January 2015 12:48:31
Eccentricity: 0.0018268
inclination: 82.5266°
perigee height: 603 km
apogee height: 628 km
right ascension of ascending node: 168.9022°
argument of perigee: 195.8323°
revolutions per day: 14.84289522
mean anomaly at epoch: 210.9412°
orbit number at epoch: 79079

The dashed part of the orbit path shows where the satellite is in the earth's shadow,  

DLR